�������l�o���
Date,Time,MP-1(��Sv/h),MP-2(��Sv/h),MP-3(��Sv/h),MP-4(��Sv/h),MP-5(��Sv/h),MP-6(��Sv/h),MP-7(��Sv/h),MP-8(��Sv/h),����,����(m/s),���J
2023/09/09,00:00,0.480,0.701,0.446,0.898,0.564,0.287,0.541,0.501,-,CALM,�L
2023/09/09,00:10,0.487,0.706,0.451,0.908,0.569,0.301,0.545,0.505,���쓌,12.4,�L
2023/09/09,00:20,0.492,0.712,0.458,0.917,0.576,0.308,0.547,0.509,��쓌,6.1,�L
2023/09/09,00:30,0.491,0.700,0.451,0.907,0.581,0.308,0.539,0.502,��쓌,5.4,�L
2023/09/09,00:40,0.477,0.699,0.446,0.906,0.585,0.307,0.541,0.498,��,7.2,�L
2023/09/09,00:50,0.487,0.706,0.453,0.913,0.592,0.310,0.544,0.503,��,6.7,��
2023/09/09,01:00,0.492,0.709,0.458,0.918,0.596,0.310,0.545,0.508,��,5.7,��
2023/09/09,01:10,0.494,0.714,0.459,0.922,0.602,0.311,0.547,0.510,��,5.0,�L
2023/09/09,01:20,0.496,0.714,0.459,0.926,0.604,0.311,0.547,0.511,��,5.6,�L
2023/09/09,01:30,0.496,0.715,0.459,0.927,0.604,0.312,0.548,0.514,��,6.0,��
2023/09/09,01:40,0.498,0.714,0.459,0.929,0.607,0.312,0.550,0.514,��,5.4,��
2023/09/09,01:50,0.497,0.717,0.460,0.931,0.612,0.312,0.548,0.515,��,5.6,��
2023/09/09,02:00,0.498,0.718,0.462,0.930,0.612,0.312,0.550,0.516,��,5.7,��
2023/09/09,02:10,0.499,0.720,0.462,0.933,0.614,0.311,0.551,0.517,��,5.1,��
2023/09/09,02:20,0.497,0.719,0.463,0.932,0.617,0.312,0.551,0.518,��,4.9,��
2023/09/09,02:30,0.499,0.720,0.462,0.932,0.619,0.313,0.551,0.517,��,4.7,��
2023/09/09,02:40,0.497,0.722,0.462,0.935,0.619,0.313,0.551,0.518,��,4.2,��
2023/09/09,02:50,0.500,0.723,0.463,0.936,0.621,0.312,0.552,0.519,��쓌,5.3,��
2023/09/09,03:00,0.499,0.724,0.462,0.936,0.623,0.313,0.554,0.520,��쓌,6.8,��
2023/09/09,03:10,0.500,0.724,0.462,0.936,0.625,0.311,0.552,0.520,��,5.8,��
2023/09/09,03:20,0.500,0.724,0.465,0.936,0.623,0.313,0.554,0.521,��쓌,5.5,��
2023/09/09,03:30,0.498,0.724,0.463,0.937,0.626,0.312,0.554,0.518,��,5.7,��
2023/09/09,03:40,0.501,0.724,0.462,0.938,0.626,0.312,0.552,0.520,��,5.7,�L
2023/09/09,03:50,0.500,0.726,0.464,0.936,0.628,0.312,0.556,0.520,��쓌,5.3,�L
2023/09/09,04:00,0.499,0.724,0.466,0.937,0.628,0.313,0.554,0.519,��쓌,5.2,�L
2023/09/09,04:10,0.500,0.726,0.465,0.938,0.629,0.311,0.554,0.519,��쓌,4.7,�L
2023/09/09,04:20,0.501,0.727,0.464,0.936,0.628,0.312,0.553,0.521,��쓌,3.9,��
2023/09/09,04:30,0.500,0.727,0.465,0.939,0.631,0.312,0.555,0.520,��쓌,3.7,��
2023/09/09,04:40,0.499,0.728,0.466,0.937,0.633,0.312,0.555,0.519,��쓌,4.1,��
2023/09/09,04:50,0.502,0.727,0.466,0.939,0.633,0.312,0.554,0.519,��쓌,6.0,��
2023/09/09,05:00,0.500,0.726,0.466,0.937,0.633,0.312,0.555,0.521,��쓌,6.3,��
2023/09/09,05:10,0.502,0.729,0.466,0.941,0.634,0.312,0.554,0.522,��쓌,6.9,��
2023/09/09,05:20,0.501,0.726,0.466,0.939,0.635,0.311,0.554,0.522,��쓌,6.0,��
2023/09/09,05:30,0.501,0.730,0.466,0.939,0.635,0.311,0.556,0.521,��쓌,6.3,��
2023/09/09,05:40,0.501,0.729,0.468,0.939,0.635,0.311,0.556,0.520,��쓌,5.2,��
2023/09/09,05:50,0.502,0.732,0.468,0.938,0.637,0.311,0.554,0.521,��쓌,5.5,��
2023/09/09,06:00,0.502,0.730,0.468,0.940,0.637,0.312,0.556,0.521,��쐼,5.0,��
2023/09/09,06:10,0.503,0.731,0.467,0.940,0.638,0.312,0.557,0.521,��쐼,5.0,��
2023/09/09,06:20,0.500,0.730,0.469,0.939,0.638,0.312,0.556,0.521,��,5.3,��
2023/09/09,06:30,0.502,0.731,0.467,0.943,0.639,0.313,0.555,0.521,��,4.7,��
2023/09/09,06:40,0.503,0.733,0.468,0.941,0.638,0.312,0.555,0.522,��,6.1,��
2023/09/09,06:50,0.502,0.733,0.469,0.941,0.640,0.312,0.554,0.522,��,5.6,��
2023/09/09,07:00,0.500,0.733,0.468,0.941,0.643,0.311,0.554,0.522,��,6.8,��
2023/09/09,07:10,0.503,0.734,0.469,0.942,0.640,0.311,0.555,0.522,��,6.8,�L
2023/09/09,07:20,0.503,0.735,0.468,0.943,0.641,0.313,0.555,0.520,��,6.4,�L
2023/09/09,07:30,0.503,0.736,0.469,0.942,0.641,0.311,0.556,0.520,��,6.9,�L
2023/09/09,07:40,0.488,0.717,0.458,0.924,0.624,0.306,0.546,0.514,��쓌,6.6,�L
2023/09/09,07:50,0.481,0.700,0.454,0.908,0.613,0.303,0.542,0.511,��쓌,6.9,�L
2023/09/09,08:00,0.482,0.698,0.452,0.904,0.606,0.301,0.539,0.506,-,CALM,�L
2023/09/09,08:10,0.478,0.695,0.451,0.902,0.602,0.303,0.541,0.504,��쓌,9.7,�L
2023/09/09,08:20,0.481,0.700,0.455,0.906,0.603,0.303,0.537,0.504,-,CALM,�L
2023/09/09,08:30,0.473,0.689,0.448,0.896,0.588,0.300,0.537,0.499,��,10.7,�L
2023/09/09,08:40,0.476,0.693,0.447,0.898,0.592,0.303,0.536,0.496,��,10.2,�L
2023/09/09,08:50,0.480,0.700,0.450,0.906,0.595,0.306,0.538,0.496,��쓌,10.2,�L
2023/09/09,09:00,0.486,0.705,0.453,0.912,0.599,0.306,0.541,0.502,��,8.8,�L
2023/09/09,09:10,0.490,0.708,0.457,0.915,0.602,0.306,0.542,0.503,��,8.1,�L
2023/09/09,09:20,0.491,0.712,0.458,0.917,0.604,0.307,0.544,0.507,��,8.0,�L
2023/09/09,09:30,0.491,0.712,0.455,0.918,0.604,0.308,0.543,0.508,��,6.8,�L
2023/09/09,09:40,0.489,0.707,0.455,0.917,0.604,0.308,0.544,0.509,��,8.4,�L
2023/09/09,09:50,0.491,0.710,0.458,0.921,0.609,0.309,0.543,0.512,��,7.4,�L
2023/09/09,10:00,0.490,0.712,0.457,0.922,0.610,0.307,0.546,0.510,��,8.1,�L
2023/09/09,10:10,0.493,0.710,0.459,0.922,0.612,0.309,0.545,0.512,��,7.3,��
2023/09/09,10:20,0.495,0.715,0.459,0.922,0.612,0.308,0.548,0.512,��,7.4,��
2023/09/09,10:30,0.495,0.717,0.459,0.924,0.615,0.309,0.547,0.514,��,7.7,��
2023/09/09,10:40,0.496,0.719,0.460,0.926,0.618,0.308,0.549,0.513,��,7.4,��
2023/09/09,10:50,0.495,0.722,0.463,0.927,0.618,0.308,0.549,0.516,��,7.0,��
2023/09/09,11:00,0.499,0.721,0.460,0.928,0.619,0.310,0.549,0.516,��,8.4,��
2023/09/09,11:10,0.498,0.720,0.462,0.928,0.621,0.311,0.551,0.517,��,7.5,��
2023/09/09,11:20,0.499,0.724,0.462,0.928,0.621,0.311,0.549,0.517,��쓌,9.1,��
2023/09/09,11:30,0.498,0.723,0.463,0.928,0.624,0.310,0.552,0.518,��,10.8,��
2023/09/09,11:40,0.499,0.726,0.465,0.929,0.627,0.311,0.551,0.519,��쓌,9.2,��
2023/09/09,11:50,0.499,0.728,0.464,0.931,0.629,0.311,0.551,0.518,��,9.9,��
2023/09/09,12:00,0.501,0.728,0.466,0.933,0.629,0.309,0.551,0.518,��쓌,11.3,��
2023/09/09,12:10,0.500,0.728,0.465,0.932,0.632,0.311,0.553,0.518,��,7.6,��
2023/09/09,12:20,0.501,0.727,0.466,0.933,0.629,0.312,0.551,0.519,��쓌,9.8,��
2023/09/09,12:30,0.502,0.729,0.467,0.933,0.632,0.313,0.552,0.519,��쓌,9.0,��
2023/09/09,12:40,0.503,0.730,0.466,0.937,0.634,0.312,0.553,0.520,��쓌,9.2,��
2023/09/09,12:50,0.502,0.732,0.466,0.936,0.634,0.312,0.554,0.518,��쓌,10.3,��
2023/09/09,13:00,0.503,0.734,0.466,0.936,0.634,0.312,0.554,0.519,��쓌,9.9,��
2023/09/09,13:10,0.503,0.732,0.467,0.937,0.637,0.313,0.554,0.520,��쓌,9.8,��
2023/09/09,13:20,0.503,0.732,0.469,0.938,0.636,0.313,0.554,0.520,��쓌,10.5,��
2023/09/09,13:30,0.504,0.733,0.469,0.939,0.638,0.314,0.554,0.520,��쓌,10.5,��
2023/09/09,13:40,0.503,0.732,0.468,0.938,0.637,0.313,0.553,0.521,��쓌,10.2,��
2023/09/09,13:50,0.504,0.736,0.468,0.940,0.639,0.313,0.554,0.520,��쓌,10.9,��
2023/09/09,14:00,0.504,0.734,0.469,0.939,0.640,0.314,0.555,0.521,��쓌,11.3,��
2023/09/09,14:10,0.505,0.735,0.469,0.939,0.642,0.314,0.555,0.521,��쓌,10.3,��
2023/09/09,14:20,0.506,0.735,0.469,0.939,0.641,0.315,0.555,0.520,��쓌,9.6,��
2023/09/09,14:30,0.508,0.734,0.470,0.939,0.642,0.314,0.554,0.519,��쓌,10.2,��
2023/09/09,14:40,0.505,0.736,0.468,0.938,0.641,0.314,0.555,0.518,��쓌,10.5,��
2023/09/09,14:50,0.506,0.737,0.467,0.940,0.644,0.315,0.555,0.519,��쓌,10.7,��
2023/09/09,15:00,0.506,0.737,0.469,0.942,0.644,0.315,0.555,0.520,��쓌,10.6,��
2023/09/09,15:10,0.507,0.737,0.471,0.940,0.644,0.315,0.554,0.521,��쓌,11.8,��
2023/09/09,15:20,0.504,0.737,0.469,0.943,0.647,0.315,0.555,0.519,��쓌,9.1,��
2023/09/09,15:30,0.506,0.735,0.470,0.944,0.649,0.315,0.556,0.518,��쓌,10.0,��
2023/09/09,15:40,0.507,0.738,0.472,0.944,0.647,0.317,0.556,0.520,��쓌,10.8,��
2023/09/09,15:50,0.508,0.738,0.472,0.944,0.648,0.316,0.556,0.520,��쓌,9.0,��
2023/09/09,16:00,0.508,0.741,0.473,0.941,0.649,0.315,0.556,0.519,��,8.9,��
2023/09/09,16:10,0.509,0.739,0.472,0.941,0.650,0.316,0.555,0.520,��,7.8,��
2023/09/09,16:20,0.508,0.740,0.472,0.943,0.648,0.315,0.556,0.520,��,7.7,��
2023/09/09,16:30,0.508,0.740,0.473,0.945,0.647,0.314,0.557,0.518,��,5.8,��
2023/09/09,16:40,0.506,0.739,0.471,0.942,0.649,0.315,0.556,0.519,��,6.1,��
2023/09/09,16:50,0.507,0.741,0.474,0.943,0.649,0.315,0.556,0.520,��,6.6,��
2023/09/09,17:00,0.509,0.739,0.472,0.944,0.649,0.314,0.558,0.519,��,7.3,��
2023/09/09,17:10,0.509,0.738,0.473,0.943,0.648,0.316,0.556,0.520,��,8.1,��
2023/09/09,17:20,0.510,0.742,0.473,0.945,0.650,0.316,0.559,0.521,��,7.6,��
2023/09/09,17:30,0.509,0.740,0.471,0.942,0.650,0.316,0.557,0.520,��,7.3,��
2023/09/09,17:40,0.508,0.740,0.473,0.942,0.650,0.315,0.558,0.521,��,7.8,��
2023/09/09,17:50,0.510,0.744,0.473,0.944,0.650,0.314,0.558,0.518,��,8.5,��
2023/09/09,18:00,0.509,0.743,0.472,0.943,0.653,0.315,0.556,0.521,��,9.2,��
2023/09/09,18:10,0.509,0.742,0.473,0.945,0.653,0.315,0.557,0.520,��,6.5,��
2023/09/09,18:20,0.509,0.742,0.473,0.944,0.652,0.316,0.557,0.520,��,6.0,��
2023/09/09,18:30,0.509,0.740,0.471,0.945,0.652,0.316,0.557,0.521,��,5.5,��
2023/09/09,18:40,0.508,0.745,0.471,0.948,0.650,0.317,0.558,0.522,��,7.0,��
2023/09/09,18:50,0.510,0.742,0.472,0.947,0.649,0.315,0.558,0.521,��,7.8,��
2023/09/09,19:00,0.509,0.743,0.474,0.945,0.651,0.314,0.558,0.522,��,6.2,��
2023/09/09,19:10,0.510,0.744,0.474,0.945,0.653,0.315,0.560,0.521,��,6.4,��
2023/09/09,19:20,0.509,0.744,0.473,0.944,0.655,0.315,0.558,0.522,��,5.7,��
2023/09/09,19:30,0.508,0.744,0.474,0.946,0.652,0.315,0.560,0.521,��,5.4,��
2023/09/09,19:40,0.509,0.745,0.474,0.946,0.652,0.317,0.557,0.521,��,6.3,��
2023/09/09,19:50,0.511,0.744,0.473,0.947,0.655,0.316,0.559,0.521,��,4.9,��
2023/09/09,20:00,0.509,0.745,0.473,0.946,0.653,0.316,0.558,0.522,��,5.1,��
2023/09/09,20:10,0.510,0.744,0.473,0.946,0.654,0.317,0.559,0.521,��,4.1,��
2023/09/09,20:20,0.509,0.744,0.474,0.946,0.654,0.316,0.561,0.522,��쐼,3.1,��
2023/09/09,20:30,0.509,0.743,0.474,0.947,0.655,0.315,0.558,0.521,��,3.7,��
2023/09/09,20:40,0.510,0.745,0.474,0.947,0.655,0.318,0.558,0.522,��쓌,4.7,��
2023/09/09,20:50,0.510,0.744,0.473,0.948,0.654,0.316,0.559,0.521,��,6.0,��
2023/09/09,21:00,0.511,0.742,0.474,0.946,0.653,0.315,0.561,0.523,��,6.0,��
2023/09/09,21:10,0.509,0.743,0.475,0.946,0.655,0.316,0.558,0.521,��,6.5,��
2023/09/09,21:20,0.509,0.744,0.472,0.949,0.655,0.316,0.560,0.523,��,6.1,��
2023/09/09,21:30,0.509,0.746,0.475,0.945,0.656,0.315,0.559,0.522,��,5.0,��
2023/09/09,21:40,0.509,0.748,0.473,0.946,0.656,0.315,0.559,0.522,��,5.7,��
2023/09/09,21:50,0.509,0.745,0.475,0.948,0.657,0.316,0.558,0.522,��,4.3,��
2023/09/09,22:00,0.511,0.747,0.473,0.948,0.654,0.316,0.559,0.523,��쐼,4.2,��
2023/09/09,22:10,0.508,0.745,0.474,0.947,0.657,0.315,0.559,0.521,��,3.7,��
2023/09/09,22:20,0.511,0.743,0.474,0.947,0.658,0.316,0.559,0.522,��,4.0,��
2023/09/09,22:30,0.508,0.744,0.473,0.949,0.659,0.315,0.559,0.522,��,4.7,��
2023/09/09,22:40,0.509,0.746,0.475,0.946,0.656,0.316,0.558,0.521,��,4.0,��
2023/09/09,22:50,0.509,0.745,0.475,0.947,0.656,0.315,0.560,0.520,��,4.1,��
2023/09/09,23:00,0.510,0.747,0.474,0.950,0.657,0.316,0.560,0.522,��쐼,3.0,��
2023/09/09,23:10,0.509,0.745,0.475,0.948,0.656,0.316,0.560,0.521,��쐼,3.3,��
2023/09/09,23:20,0.509,0.746,0.472,0.948,0.658,0.317,0.559,0.522,��,3.6,��
2023/09/09,23:30,0.510,0.745,0.474,0.949,0.658,0.316,0.559,0.522,��,3.6,��
2023/09/09,23:40,0.510,0.747,0.473,0.947,0.657,0.316,0.560,0.522,��,3.3,��
2023/09/09,23:50,0.510,0.745,0.474,0.951,0.658,0.316,0.562,0.522,��,3.1,��
